Location: Observatoire de Paris
(48.8363°N, 2.3365°E)
Time: 11:03:07
(UTC+01:00)

Tiros 1 despin weight - All Passes

Search period start: 31 July 2021 00:00
Search period end: 10 August 2021 00:00
Orbit: 593 x 642 km, 48.2° (Epoch: 30 July)

Date Brightness Start Highest point End Pass type
(mag) Time Alt. Az. Time Alt. Az. Time Alt. Az.
31 Jul - 13:22:13 10° SSE 13:24:32 14° SE 13:26:52 10° ESE daylight
31 Jul - 15:00:49 10° SW 15:05:16 44° SSE 15:09:44 10° E daylight
31 Jul - 16:41:56 10° W 16:46:38 82° S 16:51:20 10° E daylight
31 Jul - 18:23:30 10° W 18:28:11 70° SSW 18:32:49 10° ESE daylight
31 Jul - 20:05:18 10° W 20:09:20 29° SSW 20:13:19 10° SSE daylight
01 Aug - 13:36:46 10° SSW 13:40:24 23° SE 13:44:05 10° E daylight
01 Aug - 15:16:48 10° WSW 15:21:25 61° SSE 15:26:03 10° E daylight
01 Aug - 16:58:13 10° W 17:02:56 84° S 17:07:37 10° E daylight
01 Aug - 18:39:48 10° W 18:44:23 53° SSW 18:48:55 10° SE daylight
01 Aug - 20:22:05 10° W 20:25:15 18° SW 20:28:25 10° S daylight
02 Aug - 13:52:09 10° SW 13:56:24 35° SSE 14:00:40 10° E daylight
02 Aug - 15:32:57 10° WSW 15:37:39 76° S 15:42:21 10° E daylight
02 Aug - 17:14:29 10° W 17:19:12 78° S 17:23:53 10° ESE daylight
02 Aug - 18:56:10 10° W 19:00:29 37° SSW 19:04:46 10° SE daylight
02 Aug - 20:40:27 10° SW 20:41:04 10° SW 20:41:41 10° SW daylight
03 Aug - 12:28:39 10° S 12:31:39 17° SE 12:34:39 10° E daylight
03 Aug - 14:07:58 10° SW 14:12:29 51° SSE 14:17:03 10° E daylight
03 Aug - 15:49:13 10° W 15:53:55 84° S 15:58:38 10° E daylight
03 Aug - 17:30:47 10° W 17:35:26 64° SSW 17:40:04 10° ESE daylight
03 Aug - 19:12:42 10° W 19:16:29 24° SW 19:20:14 10° SSE daylight
04 Aug - 12:43:38 10° SSW 12:47:33 27° SE 12:51:30 10° E daylight
04 Aug - 14:24:01 10° WSW 14:28:40 68° SSE 14:33:20 10° E daylight
04 Aug - 16:05:30 10° W 16:10:12 83° S 16:14:55 10° E daylight
04 Aug - 17:47:05 10° W 17:51:36 47° SSW 17:56:04 10° SE daylight
04 Aug - 19:29:45 10° WSW 19:32:22 15° SW 19:34:58 10° S daylight
05 Aug - 11:21:08 10° SSE 11:22:55 12° SE 11:24:43 10° ESE daylight
05 Aug - 12:59:13 10° SW 13:03:35 41° SSE 13:08:00 10° E daylight
05 Aug - 14:40:13 10° WSW 14:44:55 80° S 14:49:38 10° E daylight
05 Aug - 16:21:46 10° W 16:26:28 73° SSW 16:31:08 10° ESE daylight
05 Aug - 18:03:30 10° W 18:07:39 32° SSW 18:11:47 10° SSE daylight
06 Aug - 11:35:20 10° S 11:38:46 21° SE 11:42:13 10° E daylight
06 Aug - 13:15:08 10° WSW 13:19:43 58° SSE 13:24:20 10° E daylight
06 Aug - 14:56:30 10° W 15:01:11 84° S 15:05:54 10° E daylight
06 Aug - 16:38:04 10° W 16:42:40 57° SSW 16:47:16 10° ESE daylight
06 Aug - 18:20:11 10° W 18:23:37 20° SW 18:27:02 10° S daylight
07 Aug - 11:50:36 10° SSW 11:54:43 32° SSE 11:58:53 10° E daylight
07 Aug - 13:31:16 10° WSW 13:35:55 74° SSE 13:40:36 10° E daylight
07 Aug - 15:12:46 10° W 15:17:28 80° S 15:22:10 10° ESE daylight
07 Aug - 16:54:24 10° W 16:58:48 40° SSW 17:03:10 10° SE daylight
07 Aug - 18:37:46 10° WSW 18:39:27 12° SW 18:41:08 10° SSW daylight
08 Aug - 10:27:22 10° S 10:30:00 15° SE 10:32:40 10° ESE daylight
08 Aug - 12:06:20 10° SW 12:10:47 47° SSE 12:15:17 10° E daylight
08 Aug - 13:47:30 10° W 13:52:11 83° S 13:56:54 10° E daylight
08 Aug - 15:29:03 10° W 15:33:43 67° SSW 15:38:22 10° ESE daylight
08 Aug - 17:10:54 10° W 17:14:49 27° SW 17:18:44 10° SSE daylight
09 Aug - 10:42:09 10° SSW 10:45:53 25° SE 10:49:41 10° E daylight
09 Aug - 12:22:21 10° WSW 12:26:57 64° SSE 12:31:36 10° E daylight
09 Aug - 14:03:47 10° W 14:08:27 84° S 14:13:11 10° E daylight
09 Aug - 15:45:21 10° W 15:49:53 50° SSW 15:54:25 10° SE daylight
09 Aug - 17:27:47 10° W 17:30:44 17° SW 17:33:40 10° S daylight
